KINEIS-5A

Last updated on Sat Sep 05 2026 00:02:54 GMT+0000 (Coordinated Universal Time)

1 62084U 24219D 26247.18832252 -.00000297 00000+0 -39346-4 0 9998 2 62084 97.9032 44.2026 0005496 64.1744 296.0030 14.72323063 95397
UTC large
Height (km)
Speed (km/s)
/
Latitude / Longitude
Inclination (degrees)
Orbital Period (minutes)
Azimuth
Elevation
Range (km)
Doppler Factor

Next 0 passes for location: London (51.5072 / 0.1276)

No passes found over London.
KINEIS-5A